Weather History for West Palm Beach, FL

Change the Weather History Date:

Friday, December 27, 2013

  Actual Average Record
Temperature  
Mean Temperature 78 °F 66 °F  
Max Temperature 82 °F 75 °F 87 °F (1911)
Min Temperature 74 °F 58 °F 31 °F (1909)
Degree Days  
Heating Degree Days 0 3  
Month to date heating degree days 0 46  
Since 1 July heating degree days 4 58  
Cooling Degree Days 13 4  
Month to date cooling degree days 253 139  
Year to date cooling degree days 4454 4005  
Growing Degree Days 28 (Base 50)    
Moisture  
Dew Point 66 °F    
Average Humidity 68    
Maximum Humidity 74    
Minimum Humidity 62    
Precipitation  
Precipitation T in 0.12 in 1.83 in (1949)
Month to date precipitation 4.21 2.95  
Year to date precipitation 64.85 61.90  
Snow  
Snow 0.00 in - - ()
Month to date snowfall 0.0  
Since 1 July snowfall 0.0  
Snow Depth 0.00 in    
Sea Level Pressure  
Sea Level Pressure 30.15 in    
Wind  
Wind Speed 11 mph (ENE)    
Max Wind Speed 17 mph    
Max Gust Speed 22 mph    
Visibility 10 miles    
Events      
T = Trace of Precipitation, MM = Missing Value Source: NWS Daily Summary

Daily Weather History Graph

Daily Weather History Graph

Search for Another Location

Airport:

Trip Planner

Search our weather history database for the weather conditions in past years. The results will help you decide how hot, cold, wet, or windy it might be!

Date:

Astronomy

Dec. 27, 2013 Rise Set
Actual Time 7:07 AM EST 5:35 PM EST
Civil Twilight 6:41 AM EST 6:01 PM EST
Nautical Twilight 6:13 AM EST 6:30 PM EST
Astronomical Twilight 5:44 AM EST 6:58 PM EST
Moon 1:55 AM EST (12/27) 1:29 PM EST (12/27)
Length of Visible Light 11h 19m
Length of Day
10h 28m
Waning Crescent, 28% of the Moon is Illuminated
Dec 27
Waning Crescent
Jan 1
New
Jan 7
First Quarter
Jan 15
Full
Jan 24
Last Quarter

Hourly Weather History & Observations

Time (EST) Temp. Heat Index Dew Point Humidity Pressure Visibility Wind Dir Wind Speed Gust Speed Precip Events Conditions
12:53 AM 75.9 °F - 66.0 °F 71% 30.13 in 10.0 mi ENE 8.1 mph - N/A   Mostly Cloudy
1:53 AM 75.9 °F - 66.0 °F 71% 30.12 in 10.0 mi ENE 9.2 mph - N/A   Scattered Clouds
2:53 AM 75.0 °F - 66.0 °F 73% 30.10 in 10.0 mi NE 8.1 mph - N/A   Mostly Cloudy
3:53 AM 75.9 °F - 66.0 °F 71% 30.10 in 10.0 mi NE 8.1 mph - N/A   Scattered Clouds
4:53 AM 75.0 °F - 66.0 °F 73% 30.12 in 10.0 mi NE 6.9 mph - N/A   Scattered Clouds
5:53 AM 75.0 °F - 66.9 °F 76% 30.12 in 10.0 mi NE 6.9 mph - N/A   Scattered Clouds
6:53 AM 75.0 °F - 66.0 °F 73% 30.14 in 10.0 mi ENE 6.9 mph - 0.00 in   Mostly Cloudy
7:53 AM 77.0 °F - 66.9 °F 71% 30.16 in 10.0 mi East 10.4 mph - N/A   Mostly Cloudy
8:53 AM 79.0 °F - 68.0 °F 69% 30.18 in 10.0 mi East 12.7 mph - N/A   Mostly Cloudy
9:53 AM 80.1 °F 82.7 °F 68.0 °F 67% 30.19 in 10.0 mi East 11.5 mph - N/A   Mostly Cloudy
10:53 AM 81.0 °F 83.8 °F 68.0 °F 65% 30.20 in 10.0 mi East 13.8 mph - N/A   Mostly Cloudy
11:53 AM 81.0 °F 83.8 °F 68.0 °F 65% 30.17 in 10.0 mi East 17.3 mph 21.9 mph N/A   Mostly Cloudy
12:53 PM 80.1 °F 82.3 °F 66.9 °F 64% 30.15 in 10.0 mi ENE 11.5 mph - N/A   Scattered Clouds
1:53 PM 81.0 °F 83.3 °F 66.9 °F 62% 30.14 in 10.0 mi East 13.8 mph - N/A   Mostly Cloudy
2:53 PM 79.0 °F - 66.9 °F 66% 30.13 in 10.0 mi ENE 12.7 mph - N/A   Mostly Cloudy
3:53 PM 78.1 °F - 66.0 °F 66% 30.12 in 10.0 mi ENE 13.8 mph 21.9 mph N/A   Mostly Cloudy
4:53 PM 78.1 °F - 66.0 °F 66% 30.13 in 10.0 mi ENE 10.4 mph - N/A   Mostly Cloudy
5:53 PM 77.0 °F - 66.9 °F 71% 30.13 in 10.0 mi NE 11.5 mph - N/A   Mostly Cloudy
6:53 PM 77.0 °F - 66.0 °F 69% 30.15 in 10.0 mi ENE 10.4 mph - N/A   Mostly Cloudy
7:53 PM 77.0 °F - 66.0 °F 69% 30.17 in 10.0 mi ENE 13.8 mph - N/A   Mostly Cloudy
8:53 PM 75.9 °F - 66.0 °F 71% 30.17 in 10.0 mi ENE 13.8 mph - N/A   Scattered Clouds
9:53 PM 77.0 °F - 66.0 °F 69% 30.18 in 10.0 mi ENE 13.8 mph - N/A   Scattered Clouds
10:53 PM 75.9 °F - 64.9 °F 69% 30.19 in 10.0 mi East 11.5 mph - N/A   Scattered Clouds
11:53 PM 75.9 °F - 64.9 °F 69% 30.17 in 10.0 mi ENE 10.4 mph 19.6 mph N/A   Mostly Cloudy